STELLA

Last updated on Mon Nov 03 2025 00:03:54 GMT+0000 (Coordinated Universal Time)

1 22824U 93061B 25306.45101191 -.00000032 00000+0 52323-5 0 9990 2 22824 98.8069 4.5119 0006543 167.2813 319.0860 14.27461616672422
UTC large
Height (km)
Speed (km/s)
/
Latitude / Longitude
Inclination (degrees)
Orbital Period (minutes)
Azimuth
Elevation
Range (km)
Doppler Factor

Next 0 passes for location: London (51.5072 / 0.1276)

Sorry there are no passes over London.